FW5423 Weather Reports


Display with metric or nautical units.
time (UTC)temp
F
wind
direction
speed
MPH
gust
MPH
rain 1hr
in
rain 24hr
in
rain mn
in
humidity
%
barometer
mb
20260507194509 72 359 13.0 25.0 0.00 0.00 0.00 67 1005.2
20260507194009 72 359 16.0 25.0 0.00 0.00 0.00 66 1005.2
20260507193508 72 359 18.0 25.0 0.00 0.00 0.00 66 1005.1
20260507193016 73 359 14.0 24.0 0.00 0.00 0.00 66 1005.3
20260507192509 73 359 16.0 26.0 0.00 0.00 0.00 66 1005.4
20260507192008 73 359 18.0 26.0 0.00 0.00 0.00 65 1005.5
20260507191510 73 359 16.0 26.0 0.00 0.00 0.00 64 1005.3
20260507191008 73 359 17.0 26.0 0.00 0.00 0.00 64 1005.3
20260507190509 73 359 16.0 27.0 0.00 0.00 0.00 64 1005.4
20260507190008 73 359 18.0 28.0 0.00 0.00 0.00 63 1005.3
20260507185506 73 4 17.0 28.0 0.00 0.00 0.00 63 1005.5
20260507184506 74 359 18.0 28.0 0.00 0.00 0.00 62 1005.5
20260507184007 74 359 15.0 23.0 0.00 0.00 0.00 63 1005.5
20260507183507 74 359 13.0 23.0 0.00 0.00 0.00 62 1005.7
20260507183008 74 359 15.0 24.0 0.00 0.00 0.00 61 1005.7
20260507182506 74 359 15.0 29.0 0.00 0.00 0.00 59 1005.8
20260507182004 74 359 18.0 29.0 0.00 0.00 0.00 60 1005.7
20260507181505 74 359 16.0 27.0 0.00 0.00 0.00 61 1005.9
20260507181004 74 359 16.0 25.0 0.00 0.00 0.00 59 1005.8
20260507180504 74 359 16.0 28.0 0.00 0.00 0.00 59 1006.0
20260507180004 74 359 20.0 28.0 0.00 0.00 0.00 58 1006.0
20260507175506 74 359 16.0 26.0 0.00 0.00 0.00 59 1005.9
20260507174508 74 359 16.0 24.0 0.00 0.00 0.00 60 1006.1
20260507174002 74 359 15.0 24.0 0.00 0.00 0.00 60 1006.0
20260507173504 74 359 16.0 27.0 0.00 0.00 0.00 59 1006.1
20260507173002 74 359 21.0 32.0 0.00 0.00 0.00 58 1006.0
20260507172502 73 359 16.0 32.0 0.00 0.00 0.00 60 1006.2
20260507172001 74 359 18.0 28.0 0.00 0.00 0.00 59 1006.3
20260507171501 74 359 17.0 29.0 0.00 0.00 0.00 58 1006.2
20260507171001 74 359 18.0 29.0 0.00 0.00 0.00 57 1006.3
20260507170601 74 359 22.0 29.0 0.00 0.00 0.00 55 1006.2
20260507165604 74 359 18.0 33.0 0.00 0.00 0.00 58 1006.5
20260507164601 74 359 19.0 28.0 0.00 0.00 0.00 58 1006.6
20260507164059 74 359 17.0 26.0 0.00 0.00 0.00 57 1006.7
20260507163559 75 359 18.0 26.0 0.00 0.00 0.00 58 1006.5
20260507163059 75 359 16.0 26.0 0.00 0.00 0.00 59 1006.8
20260507162558 74 359 16.0 26.0 0.00 0.00 0.00 58 1006.8
20260507162059 74 359 19.0 26.0 0.00 0.00 0.00 60 1006.9
20260507161558 74 359 18.0 28.0 0.00 0.00 0.00 60 1007.0
20260507161059 74 359 20.0 28.0 0.00 0.00 0.00 60 1006.9
20260507160554 73 359 19.0 27.0 0.00 0.00 0.00 63 1007.1
20260507160114 73 359 17.0 26.0 0.00 0.00 0.00 62 1007.3
20260507155556 73 359 18.0 26.0 0.00 0.00 0.00 63 1007.5
20260507154552 74 359 17.0 27.0 0.00 0.00 0.00 63 1007.6
20260507154050 74 359 18.0 25.0 0.00 0.00 0.00 64 1007.8
20260507153555 74 359 12.0 23.0 0.00 0.00 0.00 67 1007.9
20260507153048 74 359 10.0 23.0 0.00 0.00 0.00 67 1008.1
20260507152557 73 359 15.0 24.0 0.00 0.00 0.00 66 1008.3
20260507152048 74 359 13.0 24.0 0.00 0.00 0.00 66 1008.4
20260507151545 73 359 13.0 29.0 0.00 0.00 0.00 66 1008.5
20260507151045 73 359 17.0 29.0 0.00 0.00 0.00 65 1008.7
20260507150543 73 359 16.0 26.0 0.00 0.00 0.00 65 1008.9
20260507150043 73 359 14.0 24.0 0.00 0.00 0.00 69 1009.1
20260507145544 73 359 16.0 24.0 0.00 0.00 0.00 69 1009.2
20260507144540 73 359 12.0 21.0 0.00 0.00 0.00 71 1009.4
20260507144039 73 359 12.0 25.0 0.00 0.00 0.00 71 1009.4
20260507143537 73 359 13.0 25.0 0.00 0.00 0.00 72 1009.4
20260507143037 72 359 15.0 22.0 0.00 0.00 0.00 72 1009.5
20260507142535 72 359 13.0 20.0 0.00 0.00 0.00 75 1009.7
20260507142034 72 359 14.0 19.0 0.00 0.00 0.00 75 1009.7
20260507141534 72 359 10.0 21.0 0.00 0.00 0.00 77 1009.8
20260507141031 71 359 12.0 23.0 0.00 0.00 0.00 77 1009.9
20260507140530 71 359 13.0 23.0 0.00 0.00 0.00 76 1010.0
20260507140037 71 354 11.0 20.0 0.00 0.00 0.00 76 1010.1
20260507135527 70 16 11.0 20.0 0.00 0.00 0.00 77 1010.2
20260507134529 70 359 10.0 17.0 0.00 0.00 0.00 78 1010.5
20260507134027 70 15 10.0 17.0 0.00 0.00 0.00 78 1010.5
20260507133525 69 359 9.0 20.0 0.00 0.00 0.00 79 1010.6
20260507133024 69 359 8.0 14.0 0.00 0.00 0.00 81 1010.5
20260507132522 69 359 7.0 17.0 0.00 0.00 0.00 81 1010.6
20260507132026 68 359 10.0 17.0 0.00 0.00 0.00 80 1010.8
20260507131538 68 359 9.0 17.0 0.00 0.00 0.00 79 1010.7
20260507131021 69 359 11.0 17.0 0.00 0.00 0.00 78 1010.8
20260507130520 69 359 9.0 15.0 0.00 0.00 0.00 79 1010.8
20260507130020 68 359 8.0 15.0 0.00 0.00 0.00 80 1010.9
20260507125519 69 359 7.0 15.0 0.00 0.00 0.00 79 1010.9
20260507124519 69 10 9.0 16.0 0.00 0.00 0.00 78 1010.9
20260507124013 68 359 10.0 16.0 0.00 0.00 0.00 79 1010.9
20260507123512 68 359 8.0 14.0 0.00 0.00 0.00 79 1011.0
20260507123013 68 359 7.0 12.0 0.00 0.00 0.00 79 1011.0
20260507122517 67 359 8.0 17.0 0.00 0.00 0.00 81 1011.1
20260507122008 67 359 7.0 12.0 0.00 0.00 0.00 81 1011.2
20260507121508 67 8 8.0 12.0 0.00 0.00 0.00 81 1011.1
20260507121006 67 359 7.0 14.0 0.00 0.00 0.00 81 1011.2
20260507120504 67 359 9.0 14.0 0.00 0.00 0.00 81 1011.2
20260507120002 66 359 7.0 14.0 0.00 0.00 0.00 82 1011.3
20260507115502 66 359 8.0 15.0 0.00 0.00 0.00 81 1011.3
20260507114501 66 359 7.0 15.0 0.00 0.00 0.00 79 1011.3
20260507114100 66 359 9.0 15.0 0.00 0.00 0.00 78 1011.3
20260507113600 66 359 8.0 18.0 0.00 0.00 0.00 79 1011.3
20260507113131 66 359 9.0 18.0 0.00 0.00 0.00 79 1011.3
20260507112557 66 359 10.0 17.0 0.00 0.00 0.00 78 1011.3
20260507112059 66 354 11.0 17.0 0.00 0.00 0.00 78 1011.3
20260507111556 66 9 8.0 16.0 0.00 0.00 0.00 78 1011.2
20260507111054 65 359 9.0 16.0 0.00 0.00 0.00 79 1011.3
20260507110554 65 359 8.0 16.0 0.00 0.00 0.00 79 1011.3
20260507110053 65 359 10.0 15.0 0.00 0.00 0.00 79 1011.3
20260507105551 65 359 10.0 15.0 0.00 0.00 0.00 80 1011.4
20260507105151 65 359 8.0 14.0 0.00 0.00 0.00 79 1011.4
20260507104601 65 359 9.0 14.0 0.00 0.00 0.00 79 1011.4
20260507104050 65 359 9.0 17.0 0.00 0.00 0.00 79 1011.4
20260507103548 65 359 8.0 15.0 0.00 0.00 0.00 80 1011.5
20260507103048 65 359 9.0 17.0 0.00 0.00 0.00 79 1011.4
20260507102548 65 359 8.0 17.0 0.00 0.00 0.00 79 1011.3
20260507102048 65 359 9.0 16.0 0.00 0.00 0.00 79 1011.2
20260507101553 64 359 9.0 15.0 0.00 0.00 0.00 80 1011.3
20260507101050 64 359 8.0 14.0 0.00 0.00 0.00 80 1011.3
20260507100547 64 359 10.0 16.0 0.00 0.00 0.00 80 1011.3
20260507100055 63 359 10.0 16.0 0.00 0.00 0.00 81 1011.2
20260507095547 63 359 9.0 14.0 0.00 0.00 0.00 81 1011.1
20260507095148 63 359 8.0 13.0 0.00 0.00 0.00 81 1011.2
20260507094548 63 359 9.0 13.0 0.00 0.00 0.00 80 1011.2
20260507094051 63 359 9.0 12.0 0.00 0.00 0.00 80 1011.1
20260507093547 63 4 8.0 13.0 0.00 0.00 0.00 81 1011.1
20260507093047 63 359 8.0 16.0 0.00 0.00 0.00 81 1011.1
20260507092548 63 359 9.0 14.0 0.00 0.00 0.00 81 1011.1
20260507092049 63 359 9.0 14.0 0.00 0.00 0.00 82 1010.9
20260507091549 63 359 9.0 16.0 0.00 0.00 0.00 82 1010.8
20260507091046 63 359 10.0 16.0 0.00 0.00 0.00 82 1010.7
20260507090545 63 359 9.0 13.0 0.00 0.00 0.00 81 1010.6
20260507090046 63 359 8.0 14.0 0.00 0.00 0.00 81 1010.7
20260507085545 63 359 8.0 15.0 0.00 0.00 0.00 81 1010.8
20260507085145 63 359 9.0 15.0 0.00 0.00 0.00 80 1010.7
20260507084554 63 359 8.0 15.0 0.00 0.00 0.00 81 1010.6
20260507084047 64 359 9.0 17.0 0.00 0.00 0.00 80 1010.6
20260507083544 64 359 10.0 17.0 0.00 0.00 0.00 79 1010.5
20260507083044 64 359 9.0 16.0 0.00 0.00 0.00 79 1010.6
20260507082542 64 359 9.0 16.0 0.00 0.00 0.00 79 1010.6
20260507082043 64 359 10.0 15.0 0.00 0.00 0.00 79 1010.5
20260507081543 64 359 11.0 15.0 0.00 0.00 0.00 80 1010.6
20260507081042 64 359 10.0 15.0 0.00 0.00 0.00 81 1010.6
20260507080540 64 359 10.0 16.0 0.00 0.00 0.00 82 1010.6
20260507080040 64 34 8.0 17.0 0.00 0.00 0.00 81 1010.6
20260507075540 64 28 11.0 18.0 0.00 0.00 0.00 79 1010.7
20260507075139 64 359 10.0 16.0 0.00 0.00 0.00 80 1010.7
20260507074541 64 359 9.0 15.0 0.00 0.00 0.00 79 1010.8
20260507074036 65 359 10.0 16.0 0.00 0.00 0.00 79 1010.9
20260507073535 64 14 11.0 17.0 0.00 0.00 0.00 79 1010.9
20260507073035 64 4 12.0 17.0 0.00 0.00 0.00 82 1011.0
20260507072535 64 359 10.0 19.0 0.00 0.00 0.00 82 1010.9
20260507072035 64 359 11.0 19.0 0.00 0.00 0.00 82 1010.9
20260507071537 64 18 10.0 17.0 0.00 0.00 0.00 82 1010.9
20260507071033 64 359 9.0 15.0 0.00 0.00 0.00 80 1011.0
20260507070533 64 359 10.0 15.0 0.00 0.00 0.00 81 1011.0
20260507070033 64 359 9.0 16.0 0.00 0.00 0.00 81 1011.1
20260507065531 64 359 9.0 14.0 0.00 0.00 0.00 82 1011.1
20260507065131 65 359 8.0 14.0 0.00 0.00 0.00 81 1011.2
20260507064543 65 359 8.0 14.0 0.00 0.00 0.00 81 1011.2
20260507064058 65 359 9.0 15.0 0.00 0.00 0.00 82 1011.2
20260507063532 65 359 11.0 15.0 0.00 0.00 0.00 82 1011.3
20260507063031 65 359 10.0 15.0 0.00 0.00 0.00 81 1011.3
20260507062531 65 359 10.0 14.0 0.00 0.00 0.00 80 1011.5
20260507062102 65 359 8.0 13.0 0.00 0.00 0.00 80 1011.5
20260507061535 65 359 9.0 16.0 0.00 0.00 0.00 80 1011.5
20260507061029 65 359 9.0 16.0 0.00 0.00 0.00 80 1011.5
20260507060528 64 359 8.0 14.0 0.00 0.00 0.00 82 1011.6
20260507060036 65 359 9.0 14.0 0.00 0.00 0.00 83 1011.6
20260507055528 65 359 9.0 15.0 0.00 0.00 0.00 83 1011.6
20260507055131 65 359 10.0 15.0 0.00 0.00 0.00 83 1011.9
20260507054535 65 359 9.0 13.0 0.00 0.00 0.00 85 1011.9
20260507054023 65 359 7.0 16.0 0.00 0.00 0.00 85 1011.9
20260507053523 65 359 9.0 16.0 0.00 0.00 0.00 85 1012.0
20260507053021 65 359 8.0 14.0 0.00 0.00 0.00 85 1012.2
20260507052524 65 359 8.0 12.0 0.00 0.00 0.00 85 1012.3
20260507052020 65 359 8.0 12.0 0.00 0.00 0.00 85 1012.3
20260507051520 65 359 7.0 14.0 0.00 0.00 0.00 85 1012.4
20260507051023 65 4 8.0 14.0 0.00 0.00 0.00 85 1012.4
20260507050519 65 359 7.0 13.0 0.00 0.00 0.00 86 1012.6
20260507050039 66 359 9.0 13.0 0.00 0.00 0.00 85 1012.6
20260507045517 66 359 8.0 13.0 0.00 0.00 0.00 85 1012.7
20260507045116 66 359 8.0 14.0 0.00 0.00 0.00 85 1012.7
20260507044522 66 359 9.0 14.0 0.00 0.00 0.00 85 1012.7
20260507044015 66 359 6.0 12.0 0.00 0.00 0.00 85 1012.7
20260507043515 66 359 8.0 15.0 0.00 0.00 0.00 84 1012.8
20260507043015 66 359 8.0 15.0 0.00 0.00 0.00 85 1012.9
20260507042515 66 359 8.0 14.0 0.00 0.00 0.00 86 1012.9
20260507042014 65 359 8.0 14.0 0.00 0.00 0.00 88 1012.9
20260507041513 65 359 9.0 14.0 0.00 0.00 0.00 89 1013.0
20260507041013 65 359 8.0 15.0 0.00 0.00 0.00 90 1013.0
20260507040512 65 359 10.0 15.0 0.00 0.00 0.00 89 1013.0
20260507040014 65 359 8.0 12.0 0.00 0.00 0.00 89 1013.0
20260507035510 66 4 7.0 13.0 0.00 0.00 0.00 89 1013.1
20260507035110 65 359 9.0 13.0 0.00 0.00 0.00 89 1013.2
20260507034511 65 359 8.0 12.0 0.00 0.00 0.00 89 1013.2
20260507034013 65 359 8.0 10.0 0.00 0.00 0.00 90 1013.3
20260507033508 65 4 8.0 12.0 0.00 0.00 0.00 89 1013.3
20260507033008 66 359 6.0 13.0 0.00 0.00 0.00 89 1013.3
20260507032506 66 359 8.0 13.0 0.00 0.00 0.00 89 1013.4
20260507032108 66 8 7.0 12.0 0.00 0.00 0.00 89 1013.4
20260507031507 66 359 8.0 12.0 0.00 0.00 0.00 89 1013.4
20260507031006 66 4 6.0 11.0 0.00 0.00 0.00 89 1013.4
20260507030505 66 4 7.0 11.0 0.00 0.00 0.00 89 1013.5
20260507030006 66 359 6.0 11.0 0.00 0.00 0.00 89 1013.6
20260507025504 66 359 6.0 10.0 0.00 0.00 0.00 88 1013.7
20260507025104 66 359 7.0 11.0 0.00 0.00 0.00 88 1013.8
20260507024507 66 16 8.0 11.0 0.00 0.00 0.00 88 1013.8
20260507024006 66 359 7.0 11.0 0.00 0.00 0.00 88 1013.8
20260507023506 66 359 8.0 11.0 0.00 0.00 0.00 88 1013.8
20260507023006 66 359 6.0 10.0 0.00 0.00 0.00 87 1013.9
20260507022506 66 359 7.0 11.0 0.00 0.00 0.00 87 1013.9
20260507022006 66 359 7.0 11.0 0.00 0.00 0.00 86 1013.9
20260507021516 67 359 6.0 10.0 0.00 0.00 0.00 85 1014.0
20260507021005 67 359 7.0 10.0 0.00 0.00 0.00 85 1013.9
20260507020505 67 354 7.0 11.0 0.00 0.00 0.00 84 1014.0
20260507020005 67 8 7.0 11.0 0.00 0.00 0.00 83 1014.0
20260507015506 67 4 6.0 10.0 0.00 0.00 0.00 83 1014.0
20260507015105 67 359 6.0 10.0 0.00 0.00 0.00 83 1014.1
20260507014503 67 359 5.0 9.0 0.00 0.00 0.00 83 1014.1
20260507014005 67 359 7.0 9.0 0.00 0.00 0.00 82 1014.2
20260507013504 67 359 6.0 12.0 0.00 0.00 0.00 82 1014.2
20260507013007 67 4 7.0 12.0 0.00 0.00 0.00 82 1014.1
20260507012505 67 359 6.0 12.0 0.00 0.00 0.00 81 1014.2
20260507012003 67 359 6.0 11.0 0.00 0.00 0.00 82 1014.1
20260507011511 67 359 8.0 11.0 0.00 0.00 0.00 82 1014.3
20260507011002 67 359 7.0 14.0 0.00 0.00 0.00 81 1014.3
20260507010506 67 359 7.0 14.0 0.00 0.00 0.00 82 1014.2
20260507010005 67 359 7.0 11.0 0.00 0.00 0.00 82 1014.3
20260507005503 67 359 8.0 11.0 0.00 0.00 0.00 83 1014.3
20260507005103 67 359 6.0 11.0 0.00 0.00 0.00 83 1014.4
20260507004600 67 359 6.0 11.0 0.00 0.00 0.00 84 1014.3
20260507004100 67 359 7.0 11.0 0.00 0.00 0.00 83 1014.4
20260507003600 68 359 7.0 11.0 0.00 0.00 0.00 82 1014.4
20260507003100 68 359 7.0 10.0 0.00 0.00 0.00 83 1014.4
20260507002559 68 359 7.0 10.0 0.00 0.00 0.00 83 1014.5
20260507002100 67 359 7.0 11.0 0.00 0.00 0.00 86 1014.5
20260507001607 67 359 6.0 11.0 0.00 0.00 0.00 87 1014.6
20260507001059 67 359 6.0 9.0 0.00 0.00 0.00 88 1014.6
20260507000559 67 359 6.0 9.0 0.00 0.00 0.00 87 1014.7
20260507000059 68 4 7.0 9.0 0.00 0.00 0.00 86 1014.6
20260506235559 68 359 6.0 9.0 0.00 0.00 0.00 86 1014.7
20260506235058 68 359 5.0 8.0 0.00 0.00 0.00 86 1014.7
20260506234505 68 359 4.0 9.0 0.00 0.00 0.00 85 1014.7
20260506234006 69 359 5.0 10.0 0.00 0.00 0.00 84 1014.6
20260506233506 69 359 6.0 10.0 0.00 0.00 0.00 84 1014.7
20260506233006 69 359 5.0 11.0 0.00 0.00 0.00 85 1014.6
20260506232505 69 359 6.0 9.0 0.00 0.00 0.00 83 1014.5
20260506232007 69 354 5.0 10.0 0.00 0.00 0.00 83 1014.4
20260506231505 69 354 5.0 10.0 0.00 0.00 0.00 84 1014.3
20260506231006 69 4 5.0 8.0 0.00 0.00 0.00 84 1014.4
20260506230504 69 4 5.0 8.0 0.00 0.00 0.00 84 1014.3
20260506230005 69 4 5.0 8.0 0.00 0.00 0.00 84 1014.2
20260506225509 69 4 5.0 8.0 0.00 0.00 0.00 85 1014.2
20260506225105 69 4 5.0 10.0 0.00 0.00 0.00 88 1014.1
20260506224600 69 359 5.0 10.0 0.00 0.00 0.00 88 1014.1
20260506224101 69 8 5.0 8.0 0.00 0.00 0.00 88 1014.0
20260506223602 69 8 4.0 8.0 0.00 0.00 0.00 90 1014.1
20260506223102 69 16 4.0 7.0 0.00 0.00 0.00 91 1014.0
20260506222559 69 4 5.0 8.0 0.00 0.00 0.00 92 1014.0
20260506222101 69 4 4.0 8.0 0.00 0.00 0.00 92 1014.0
20260506221559 69 4 4.0 6.0 0.00 0.00 0.00 91 1014.0
20260506221059 69 4 4.0 6.0 0.00 0.00 0.00 91 1013.9
20260506220559 69 4 4.0 7.0 0.00 0.00 0.00 90 1013.9
20260506220101 69 4 3.0 7.0 0.00 0.00 0.00 90 1013.9
20260506215601 69 4 4.0 6.0 0.00 0.00 0.00 89 1013.9
20260506215103 70 4 4.0 7.0 0.00 0.00 0.00 89 1013.8
20260506214557 70 4 4.0 6.0 0.00 0.00 0.00 89 1013.7
20260506214057 70 4 5.0 6.0 0.00 0.00 0.00 89 1013.6
20260506213557 70 4 4.0 6.0 0.00 0.00 0.00 88 1013.7
20260506213057 70 4 4.0 7.0 0.00 0.00 0.00 88 1013.6
20260506212556 70 4 5.0 7.0 0.00 0.00 0.00 87 1013.5
20260506212056 70 4 4.0 7.0 0.00 0.00 0.00 88 1013.6
20260506211557 70 4 4.0 6.0 0.00 0.00 0.00 88 1013.6
20260506211056 70 4 4.0 6.0 0.00 0.00 0.00 88 1013.6
20260506210556 70 4 3.0 7.0 0.00 0.00 0.00 87 1013.5
20260506210056 70 4 4.0 7.0 0.00 0.00 0.00 86 1013.5
20260506205556 70 359 3.0 5.0 0.00 0.00 0.00 85 1013.5
20260506205056 70 359 2.0 4.0 0.00 0.00 0.00 86 1013.4
20260506204601 70 359 1.0 4.0 0.00 0.00 0.00 86 1013.4
20260506204056 70 359 1.0 4.0 0.00 0.00 0.00 85 1013.4
20260506203557 70 359 0.0 3.0 0.00 0.00 0.00 91 1013.3
20260506203057 71 359 1.0 2.0 0.00 0.00 0.00 91 1013.4
20260506202600 71 359 0.0 2.0 0.00 0.00 0.00 89 1013.4
20260506202059 72 359 0.0 1.0 0.00 0.00 0.00 87 1013.3
20260506201558 72 359 0.0 1.0 0.00 0.00 0.00 84 1013.2
20260506201057 72 359 0.0 1.0 0.00 0.00 0.00 83 1013.3
20260506200558 72 359 0.0 1.0 0.00 0.00 0.00 83 1013.3
20260506200110 72 359 0.0 1.0 0.00 0.00 0.00 84 1013.3
20260506195600 72 359 0.0 2.0 0.00 0.00 0.00 86 1013.2
20260506195056 72 359 0.0 2.0 0.00 0.00 0.00 83 1013.2